Location: Champseau
(45.8333°N, 1.7667°E)
Time: 06:43:46
(UTC+00:00)

Cosmos 2074 Rocket - Pass Details

Date: 18 April 2021
Orbit: 968 x 985 km, 82.9° (Epoch: 15 May)

Event Time Altitude Azimuth Distance (km) Brightness Sun altitude
Rises 23:35:20 0° 354° (N) 3,686 8.1 -32.9°
Reaches altitude 10° 23:37:54 10° 358° (N) 2,737 7.2 -32.9°
Enters shadow 23:43:23 55° 50° (NE) 1,169 4.4 -33.0°
